Regional Weather Roundup
Issued by NWS

Home | Current Version | Previous Version | Text Only | Print | Product List | Glossary Off
Versions: 1 2 3 4 5 6 7 8 9 10 11 12 13 14 15 16 17 18 19 20 21 22 23 24 25 26 27 28 29 30 31 32 33 34 35 36 37 38 39 40 41 42 43 44 45 46 47 48 49 50

641
ASUS43 KOAX 220710
RWRNE

WEATHER ROUNDUP FOR NEBRASKA
NATIONAL WEATHER SERVICE OMAHA NE
200 AM CDT FRI MAY 22 2015

NOTES: SATELLITE DATA IS BEING USED TO AUGMENT CLOUD COVER ABOVE
       12000 FEET.
       "FAIR" INDICATES FEW OR NO CLOUDS BELOW 12,000 FEET WITH NO
       SIGNIFICANT WEATHER AND/OR OBSTRUCTIONS TO VISIBILITY.

  * THESE STATIONS DO NOT REPORT WEATHER SUCH AS RAIN...SNOW OR FOG.

NEZ001>004-019>022-054>056-220800-
NEBRASKA PANHANDLE

CITY           SKY/WX    TMP DP  RH WIND       PRES   REMARKS
SCOTTSBLUFF    CLOUDY    52  45  77 SE12      30.10F
ALLIANCE       CLOUDY    50  43  77 SE12      30.11F
CHADRON        CLOUDY    53  44  71 SE14      30.10F
KIMBALL          N/A    N/A N/A N/A MISG        N/A
SIDNEY         CLOUDY    49  44  83 SE10      30.14S
$$

NEZ057>060-069>072-079>082-220800-
SOUTHWEST NEBRASKA

CITY           SKY/WX    TMP DP  RH WIND       PRES   REMARKS
NORTH PLATTE   MOCLDY    48  41  76 SE5       30.19F
IMPERIAL       CLOUDY    48  45  89 SE7       30.17F
LEXINGTON      MOCLDY    48  42  77 S5        30.20F
MCCOOK         MOCLDY    48  44  86 SE6       30.20S
OGALLALA       CLOUDY    51  46  80 E7        30.16F
$$

NEZ005>010-023>029-035>040-094-220800-
NORTH CENTRAL NEBRASKA

CITY           SKY/WX    TMP DP  RH WIND       PRES   REMARKS
VALENTINE      CLEAR     48  38  68 S6        30.18F
AINSWORTH      CLEAR     44  37  78 S8        30.20F
BROKEN BOW     CLEAR     42  39  89 N3        30.20F
O`NEILL        CLEAR     47  37  66 SW6       30.21S
ORD            CLEAR     41  36  82 CALM      30.21S
THEDFORD       CLEAR     47  41  78 S8        30.19F
$$

NEZ041-046>049-061>064-073>077-083>087-220800-
SOUTH CENTRAL NEBRASKA

CITY           SKY/WX    TMP DP  RH WIND       PRES   REMARKS
GRAND ISLAND   MOCLDY    50  40  68 CALM      30.23S
AURORA         MOCLDY    49  40  70 SW3       30.22F
HASTINGS       MOCLDY    51  40  65 CALM      30.22S
HEBRON         CLOUDY    48  44  84 CALM      30.23S
HOLDREGE       CLOUDY    48  40  73 S3        30.21F
KEARNEY *      MOCLDY    50  39  66 CALM      30.22F
YORK           MOCLDY    50  43  76 SW6       30.22F
$$

NEZ011>018-030>034-042>045-220800-
NORTHEAST NEBRASKA

CITY           SKY/WX    TMP DP  RH WIND       PRES   REMARKS
NORFOLK        CLEAR     50  38  63 W6        30.20S
ALBION         CLEAR     45  37  73 CALM      30.21S
BLAIR          PTCLDY    54  40  60 SW7       30.20S
COLUMBUS *     CLEAR     46  36  66 NW3       30.24S
FREMONT        CLEAR     51  42  72 W5        30.20S
TEKAMAH        CLEAR     55  40  56 SW8       30.18S
WAYNE          CLEAR     44  39  81 SW3       30.20R
$$

NEZ050>053-065>068-078-088>093-220800-
SOUTHEAST NEBRASKA

CITY           SKY/WX    TMP DP  RH WIND       PRES   REMARKS
LINCOLN        PTCLDY    54  42  64 W3        30.23S
OMAHA EPPLEY   PTCLDY    59  41  51 SW3       30.20R
BEATRICE       PTCLDY    50  43  76 W3        30.22F
FALLS CITY     PTCLDY    51  44  77 NW5       30.20F
NEBRASKA CITY  PTCLDY    53  39  61 W12       30.21S
PLATTSMOUTH    MOCLDY    54  39  57 SW7       30.21R
$$

NEZ044-045-051>053-067-220800-
OMAHA AREA

CITY           SKY/WX    TMP DP  RH WIND       PRES   REMARKS
OMAHA EPPLEY   PTCLDY    59  41  51 SW3       30.20R
BLAIR          PTCLDY    54  40  60 SW7       30.20S
FREMONT        CLEAR     51  42  72 W5        30.20S
MILLARD        PTCLDY    52  44  75 CALM      30.20S
OFFUTT AFB     PTCLDY    54  41  63 W3        30.20R
PLATTSMOUTH    MOCLDY    54  39  57 SW7       30.21R
WAHOO          FAIR      53  43  67 SW5       30.21S
$$



USA.gov is the U.S. government's official web portal to all federal, state and local government web resources and services.